Volver al catálogo

FENGYUN 1C DEB

ActivoSSO
NORAD 29916·DEBRIS·🇨🇳 China

Lanzado May 10, 1999 desde Taiyuan Satellite Launch Center

Loading…

Próximos Pases (próximas 24 horas)

TLE

ActualizadoSource: Space-Track

Época: Sep 13, 2026, 11:59 UTC

1 29916U 99025HN  26256.49958898  .00000337  00000-0  42012-3 0  9998
2 29916  99.1860 262.9804 0269780 275.7304 240.1432 13.57288369971794

Sigue FENGYUN 1C DEB en tiempo real con AllMySat

Download on the App Store